Overview Statistics Trail Chart Weather Telemetry Raw packets
 

This is the latest recevied weather packets stored in our database for station/object OE6JUE. If no packets are shown the sender has not sent any weather packets the latest 10 day(s).

<< 72 73 74 75 76 77 78 >>
Time Temp. Humidity Pressure Rain* Wind** Luminosity Snow
1788172120 30.56° C 31% 1017.3 hPa 0 mm - - -
1788171820 31.11° C 31% 1017.2 hPa 0 mm - - -
1788171520 31.11° C 31% 1017.3 hPa 0 mm - - -
1788171220 30.56° C 32% 1017.3 hPa 0 mm - - -
1788170923 30.56° C 30% 1017.4 hPa 0 mm - - -
1788170620 30.56° C 31% 1017.2 hPa 0 mm - - -
1788170320 30° C 32% 1017.5 hPa 0 mm - - -
1788170020 30° C 32% 1017.5 hPa 0 mm - - -
1788169720 30° C 34% 1017.6 hPa 0 mm - - -
1788169420 30.56° C 33% 1017.7 hPa 0 mm - - -
1788169120 30.56° C 37% 1017.7 hPa 0 mm - - -
1788168820 30.56° C 37% 1017.7 hPa 0 mm - - -
1788168521 29.44° C 38% 1017.7 hPa 0 mm - - -
1788168220 29.44° C 40% 1017.8 hPa 0 mm - - -
1788167920 29.44° C 40% 1017.8 hPa 0 mm - - -
1788167620 30° C 41% 1017.8 hPa 0 mm - - -
1788167320 28.89° C 41% 1017.9 hPa 0 mm - - -
1788167020 29.44° C 41% 1017.9 hPa 0 mm - - -
1788166720 30° C 41% 1017.9 hPa 0 mm - - -
1788166421 30° C 41% 1017.9 hPa 0 mm - - -
1788166120 29.44° C 42% 1017.8 hPa 0 mm - - -
1788165820 28.89° C 43% 1017.8 hPa 0 mm - - -
1788165520 28.33° C 44% 1017.7 hPa 0 mm - - -
1788165220 28.33° C 43% 1017.8 hPa 0 mm - - -
1788164920 28.33° C 42% 1017.7 hPa 0 mm - - -

* Rain latest hour (hover to see other rain measurements)
** Current wind speed in m/s (hover to see current wind gust speed)